Location: Baia Mare
(47.6567°N, 23.5850°E)
Time: 12:24:56
(UTC+02:00)

ISS - Pass Details

Date: 01 February 2019
Orbit: 404 x 407 km, 51.6° (Epoch: 16 January)

Event Time Altitude Azimuth Distance (km) Brightness Sun altitude
Rises 18:12:24 0° 276° (W) 2,324 1.5 -8.1°
Reaches altitude 10° 18:14:33 10° 284° (WNW) 1,465 0.1 -8.5°
Maximum altitude 18:17:41 40° 355° (N) 616 -3.0 -9.0°
Enters shadow 18:20:19 13° 64° (ENE) 1,279 -1.9 -9.4°
